Weather History for KOVS - May, 2013

Change the Weather History Date:

Saturday, May 11, 2013

  Actual Average (KPDC) Record (KPDC)
Temperature  
Mean Temperature 48 °F -  
Max Temperature 57 °F 73 °F 88 °F (2011)
Min Temperature 42 °F 48 °F 32 °F (1990)
Degree Days  
Heating Degree Days 16    
Moisture  
Dew Point 33 °F    
Average Humidity 56    
Maximum Humidity 93    
Minimum Humidity 26    
Precipitation  
Precipitation 0.00 in - - ()
Sea Level Pressure  
Sea Level Pressure 29.98 in    
Wind  
Wind Speed 9 mph (WNW)    
Max Wind Speed 22 mph    
Max Gust Speed 32 mph    
Visibility 9 miles    
Events Rain    
Averages and records for this station are not official NWS values.
T = Trace of Precipitation, MM = Missing Value Source: NWS Daily Summary

Daily Weather History Graph

Daily Weather History Graph

Search for Another Location

Airport or City:

Trip Planner

Search our weather history database for the weather conditions in past years. The results will help you decide how hot, cold, wet, or windy it might be!

Date:

Astronomy

May. 11, 2013 Rise Set
Actual Time 5:43 AM CDT 8:15 PM CDT
Civil Twilight 5:10 AM CDT 8:48 PM CDT
Nautical Twilight 4:30 AM CDT 9:28 PM CDT
Astronomical Twilight 3:44 AM CDT 10:14 PM CDT
Moon 6:50 AM CDT (5/11) 9:57 PM CDT (5/11)
Length of Visible Light 15h 37m
Length of Day
14h 32m
Waxing Crescent, 3% of the Moon is Illuminated
May 11
Waxing Crescent
May 17
First Quarter
May 24
Full
May 31
Last Quarter
Jun 8
New

Hourly Weather History & Observations

Time (CDT) Temp. Windchill Dew Point Humidity Pressure Visibility Wind Dir Wind Speed Gust Speed Precip Events Conditions
12:53 AM 46.9 °F - 45.0 °F 93% 29.95 in 10.0 mi SSW 4.6 mph - N/A   Clear
1:53 AM 46.9 °F - 45.0 °F 93% 29.93 in 9.0 mi SW 4.6 mph - N/A   Clear
2:53 AM 48.9 °F - 46.9 °F 93% 29.91 in 8.0 mi South 4.6 mph - N/A   Clear
3:53 AM 50.0 °F - 46.9 °F 89% 29.89 in 7.0 mi SW 4.6 mph - N/A   Mostly Cloudy
4:53 AM 51.1 °F - 48.0 °F 89% 29.85 in 7.0 mi Calm Calm - 0.00 in   Overcast
5:53 AM 50.0 °F - 46.9 °F 89% 29.84 in 5.0 mi SW 5.8 mph - N/A   Scattered Clouds
6:53 AM 53.1 °F - 45.0 °F 74% 29.86 in 10.0 mi West 8.1 mph - N/A   Clear
7:43 AM 51.8 °F - 42.8 °F 71% 29.90 in 10.0 mi WNW 16.1 mph 29.9 mph N/A   Mostly Cloudy
7:53 AM 51.1 °F - 39.9 °F 66% 29.91 in 10.0 mi NW 10.4 mph 26.5 mph N/A   Mostly Cloudy
8:20 AM 51.8 °F - 37.4 °F 58% 29.92 in 10.0 mi NNW 13.8 mph 26.5 mph N/A   Scattered Clouds
8:53 AM 53.1 °F - 37.9 °F 57% 29.93 in 10.0 mi WNW 13.8 mph 20.7 mph N/A   Scattered Clouds
9:53 AM 55.0 °F - 30.0 °F 38% 29.96 in 10.0 mi NW 16.1 mph 25.3 mph N/A   Clear
10:53 AM 54.0 °F - 24.1 °F 31% 29.98 in 10.0 mi NNW 21.9 mph 28.8 mph N/A   Clear
11:53 AM 55.0 °F - 26.1 °F 33% 30.00 in 10.0 mi NW 15.0 mph 25.3 mph N/A   Scattered Clouds
12:53 PM 55.0 °F - 27.0 °F 34% 30.00 in 10.0 mi NNW 18.4 mph 28.8 mph N/A   Mostly Cloudy
1:53 PM 50.0 °F - 30.9 °F 48% 30.01 in 9.0 mi NNW 15.0 mph 32.2 mph 0.00 in Rain Rain
2:53 PM 50.0 °F - 28.0 °F 43% 30.04 in 10.0 mi WNW 11.5 mph 20.7 mph 0.00 in   Mostly Cloudy
3:53 PM 53.1 °F - 26.1 °F 35% 30.04 in 10.0 mi WNW 18.4 mph 29.9 mph 0.00 in   Partly Cloudy
4:53 PM 52.0 °F - 27.0 °F 38% 30.04 in 10.0 mi NW 11.5 mph 20.7 mph N/A   Mostly Cloudy
5:53 PM 51.1 °F - 25.0 °F 36% 30.06 in 10.0 mi NNW 8.1 mph - N/A   Partly Cloudy
6:53 PM 54.0 °F - 19.9 °F 26% 30.05 in 10.0 mi WNW 13.8 mph 23.0 mph N/A   Overcast
7:53 PM 50.0 °F - 21.0 °F 32% 30.08 in 10.0 mi NNW 13.8 mph 24.2 mph N/A   Unknown
9:53 PM 45.0 °F 42.6 °F 21.9 °F 40% 30.12 in 10.0 mi WNW 4.6 mph - N/A   Clear
10:53 PM 42.1 °F - 23.0 °F 47% 30.12 in 10.0 mi Calm Calm - N/A   Clear
11:53 PM 42.1 °F 39.2 °F 24.1 °F 49% 30.12 in 10.0 mi WNW 4.6 mph - N/A   Clear